STARLINK-4524 (53396 NORAD) Tracking and Keplerian Element Data

This shows tracking and keplerian element data for the satellite.

Feedback or suggestion? Click here.




ElementValue
Catalog53396
NameSTARLINK-4524
Epoch Orbit1661
Epoch Day324.77972504
Epoch Year2022
RAAN133.17
Inclination53.2185
Eccentricity0.0002578
Argument of Perigee44.3275
Mean Anonmoly315.7923
Mean Motion15.08829209
Decay Rate-3.08E-06
L11 53396U 22097J 22324.77972504 -.00000308 00000+0 -12494-5 0 9997
L22 53396 53.2185 133.1700 0002578 44.3275 315.7923 15.08829209 16612



Live tracking and technical data element details for STARLINK-4524 (NORAD 53396). STARLINK-4524 can be tracked NOW for your location showing map with azimuth and elevation plus other details from your city location.







IsCatalogInMostPopularTable: catalog: 53396, numindb: 8
Update: records affected: 1



GetName: 53396 STARLINK-4524

Hit Count: updated at: Thu, 08 Dec 2022 10:36:59 GMT